Weather History for KOFK - January, 2013

Change the Weather History Date:

Thursday, January 31, 2013

  Actual Average Record
Temperature  
Mean Temperature 4 °F 23 °F  
Max Temperature 9 °F 34 °F 65 °F (1989)
Min Temperature -2 °F 13 °F -26 °F (1918)
Degree Days  
Heating Degree Days 61 42  
Month to date heating degree days 1270 1321  
Since 1 July heating degree days 3882 4022  
Cooling Degree Days 0 0  
Month to date cooling degree days 0 0  
Year to date cooling degree days 0 0  
Moisture  
Dew Point -7 °F    
Average Humidity 65    
Maximum Humidity 80    
Minimum Humidity 49    
Precipitation  
Precipitation T in 0.02 in 0.50 in (1915)
Month to date precipitation 0.24 0.59  
Year to date precipitation 0.24 0.59  
Snow  
Snow T in 0.20 in - ()
Month to date snowfall 0.3 6.4  
Since 1 July snowfall 7.8 17.3  
Snow Depth T in    
Sea Level Pressure  
Sea Level Pressure 30.28 in    
Wind  
Wind Speed 16 mph (NW)    
Max Wind Speed 37 mph    
Max Gust Speed 44 mph    
Visibility 10 miles    
Events Snow    
T = Trace of Precipitation, MM = Missing Value Source: NWS Daily Summary

Daily Weather History Graph

Daily Weather History Graph

Search for Another Location

Airport or City:

Trip Planner

Search our weather history database for the weather conditions in past years. The results will help you decide how hot, cold, wet, or windy it might be!

Date:

Astronomy

Jan. 31, 2013 Rise Set
Actual Time 7:43 AM CST 5:43 PM CST
Civil Twilight 7:13 AM CST 6:13 PM CST
Nautical Twilight 6:40 AM CST 6:46 PM CST
Astronomical Twilight 6:07 AM CST 7:19 PM CST
Moon 10:53 PM CST (1/31) 9:37 AM CST (1/31)
Length of Visible Light 10h 59m
Length of Day
10h 00m
Waning Gibbous, 79% of the Moon is Illuminated
Jan 31
Waning Gibbous
Feb 3
Last Quarter
Feb 10
New
Feb 17
First Quarter
Feb 25
Full

Hourly Weather History & Observations

Time (CST) Temp. Windchill Dew Point Humidity Pressure Visibility Wind Dir Wind Speed Gust Speed Precip Events Conditions
12:56 AM 8.1 °F -5.3 °F 1.0 °F 73% 30.01 in 10.0 mi NW 9.2 mph - N/A   Scattered Clouds
1:56 AM 7.0 °F -8.3 °F 1.0 °F 77% 30.02 in 10.0 mi NW 11.5 mph - N/A   Clear
2:56 AM 7.0 °F -9.1 °F -0.0 °F 73% 30.04 in 10.0 mi NW 12.7 mph - N/A   Clear
3:56 AM 6.1 °F -10.2 °F -0.0 °F 76% 30.06 in 10.0 mi NW 12.7 mph - N/A   Scattered Clouds
4:56 AM 6.1 °F -11.6 °F -2.0 °F 69% 30.08 in 10.0 mi NW 15.0 mph - N/A   Partly Cloudy
5:56 AM 5.0 °F -13.0 °F -5.1 °F 63% 30.10 in 10.0 mi NW 15.0 mph - N/A   Scattered Clouds
6:56 AM 3.0 °F -17.8 °F -7.1 °F 63% 30.15 in 10.0 mi NW 19.6 mph - N/A   Mostly Cloudy
7:56 AM 1.9 °F -18.7 °F -7.1 °F 66% 30.18 in 10.0 mi NW 18.4 mph 23.0 mph N/A   Mostly Cloudy
8:56 AM 3.0 °F -21.7 °F -7.1 °F 63% 30.22 in 10.0 mi NW 29.9 mph 41.4 mph N/A   Mostly Cloudy
9:56 AM 3.9 °F -20.5 °F -9.0 °F 55% 30.29 in 10.0 mi NW 29.9 mph 42.6 mph 0.00 in   Scattered Clouds
10:04 AM 3.2 °F -19.9 °F -5.8 °F 66% 30.19 in 2.5 mi NNW 25.3 mph 39.1 mph 0.00 in Snow Light Snow
10:18 AM 3.2 °F -20.7 °F -7.6 °F 61% 30.19 in 9.0 mi NW 27.6 mph 43.7 mph 0.00 in   Mostly Cloudy
10:56 AM 3.9 °F -19.8 °F -9.0 °F 55% 30.33 in 10.0 mi NW 27.6 mph 35.7 mph 0.00 in   Overcast
11:56 AM 6.1 °F -15.7 °F -7.1 °F 55% 30.35 in 6.0 mi NW 24.2 mph 33.4 mph N/A Snow Blowing Snow
12:56 PM 7.0 °F -14.9 °F -8.0 °F 51% 30.35 in 10.0 mi NW 25.3 mph 33.4 mph N/A   Mostly Cloudy
2:11 PM 6.8 °F -13.4 °F -9.4 °F 48% 30.25 in 10.0 mi NW 20.7 mph 32.2 mph N/A   Scattered Clouds
2:56 PM 7.0 °F -12.1 °F -8.0 °F 51% 30.38 in 10.0 mi NW 18.4 mph 28.8 mph N/A   Clear
3:56 PM 6.1 °F -12.8 °F -9.0 °F 50% 30.39 in 10.0 mi NW 17.3 mph 26.5 mph N/A   Clear
4:56 PM 5.0 °F -13.0 °F -9.0 °F 52% 30.40 in 10.0 mi NW 15.0 mph 24.2 mph N/A   Clear
5:56 PM 3.0 °F -13.3 °F -9.0 °F 57% 30.42 in 10.0 mi NW 11.5 mph - N/A   Clear
6:56 PM 1.9 °F -10.6 °F -9.0 °F 60% 30.44 in 10.0 mi NW 6.9 mph - N/A   Clear
7:56 PM 1.0 °F -11.7 °F -8.0 °F 66% 30.45 in 10.0 mi NNW 6.9 mph - N/A   Clear
8:56 PM -0.0 °F -7.9 °F -9.0 °F 66% 30.47 in 10.0 mi WNW 3.5 mph - N/A   Clear
9:56 PM -0.9 °F -11.0 °F -9.0 °F 69% 30.47 in 10.0 mi NW 4.6 mph - N/A   Clear
10:56 PM -0.9 °F -12.7 °F -8.0 °F 72% 30.48 in 10.0 mi WSW 5.8 mph - N/A   Overcast
11:56 PM -0.0 °F -11.6 °F -8.0 °F 69% 30.48 in 10.0 mi West 5.8 mph - N/A   Mostly Cloudy